FW2460 Weather Reports


time (UTC)temp
C
wind
direction
speed
KPH
gust
KPH
rain 1hr
cm
rain 24hr
cm
rain mn
cm
humidity
%
barometer
mb
20260506004559 17 94 22.5 30.6 0.00 0.00 0.00 34 1006.0
20260506003045 17 92 24.1 30.6 0.00 0.00 0.00 32 1006.0
20260506001545 17 86 19.3 33.8 0.00 0.00 0.00 32 1006.0
20260506000110 18 54 19.3 29.0 0.00 0.00 0.00 30 1005.8
20260505234547 18 77 22.5 32.2 0.00 0.00 0.00 30 1005.7
20260505233041 19 86 25.7 37.0 0.00 0.00 0.00 29 1005.4
20260505231541 20 78 27.4 37.0 0.00 0.00 0.00 28 1005.1
20260505230058 20 65 20.9 38.6 0.00 0.00 0.00 27 1005.2
20260505224542 20 46 14.5 32.2 0.00 0.00 0.00 26 1005.1
20260505223039 20 41 20.9 32.2 0.00 0.00 0.00 26 1005.2
20260505221536 20 39 20.9 30.6 0.00 0.00 0.00 26 1005.4
20260505220034 20 79 19.3 30.6 0.00 0.00 0.00 27 1005.6
20260505214533 20 65 20.9 32.2 0.00 0.00 0.00 26 1005.8
20260505213034 20 63 19.3 32.2 0.00 0.00 0.00 26 1005.7
20260505211536 20 30 17.7 27.4 0.00 0.00 0.00 25 1005.9
20260505210032 20 95 20.9 32.2 0.00 0.00 0.00 25 1005.9
20260505204543 20 65 14.5 27.4 0.00 0.00 0.00 25 1005.9
20260505203034 20 57 11.3 20.9 0.00 0.00 0.00 24 1006.0
20260505201531 20 15 17.7 22.5 0.00 0.00 0.00 23 1005.8
20260505200028 20 30 12.9 25.7 0.00 0.00 0.00 24 1006.1
20260505194534 20 309 11.3 32.2 0.00 0.00 0.00 23 1006.0
20260505193127 20 46 12.9 29.0 0.00 0.00 0.00 24 1006.0
20260505191526 20 19 14.5 25.7 0.00 0.00 0.00 25 1006.0
20260505190036 19 80 12.9 27.4 0.00 0.00 0.00 26 1006.0
20260505184531 20 149 8.0 17.7 0.00 0.00 0.00 25 1006.0
20260505183025 20 84 14.5 24.1 0.00 0.00 0.00 24 1006.6
20260505181522 19 46 14.5 22.5 0.00 0.00 0.00 24 1006.3
20260505180025 18 58 12.9 20.9 0.00 0.00 0.00 25 1006.2
20260505174519 18 24 6.4 24.1 0.00 0.00 0.00 27 1006.0
20260505173016 18 9 19.3 32.2 0.00 0.00 0.00 27 1006.2
20260505171515 18 333 22.5 32.2 0.00 0.00 0.00 26 1005.5
20260505170014 17 343 25.7 38.6 0.00 0.00 0.00 26 1005.6
20260505164514 17 335 27.4 37.0 0.00 0.00 0.00 26 1005.5
20260505163016 17 344 27.4 38.6 0.00 0.00 0.00 26 1005.9
20260505161511 17 344 22.5 32.2 0.00 0.00 0.00 27 1005.6
20260505153008 17 337 24.1 33.8 0.00 0.00 0.00 29 1005.1
20260505151505 17 326 19.3 32.2 0.00 0.00 0.00 30 1004.9
20260505124553 16 299 25.7 38.6 0.00 0.00 0.00 31 1002.3
20260505123053 17 294 32.2 49.9 0.00 0.00 0.00 27 1002.3
20260505121610 18 298 32.2 41.8 0.00 0.00 0.00 16 1002.2
20260505120035 19 292 27.4 35.4 0.00 0.00 0.00 15 1001.9
20260505114535 19 281 25.7 37.0 0.00 0.00 0.00 15 1001.6
20260505113032 20 292 27.4 35.4 0.00 0.00 0.00 13 1001.1
20260505111537 20 270 25.7 37.0 0.00 0.00 0.00 13 1000.6
20260505101525 21 267 29.0 40.2 0.00 0.00 0.00 13 1000.3
20260505100033 20 250 27.4 41.8 0.00 0.00 0.00 14 1000.4
20260505094521 21 229 25.7 41.8 0.00 0.00 0.00 13 1000.3
20260505093026 21 257 27.4 43.5 0.00 0.00 0.00 12 1000.4
20260505091518 21 273 27.4 41.8 0.00 0.00 0.00 12 1000.5
20260505090017 21 253 22.5 35.4 0.00 0.00 0.00 12 1000.7
20260505084518 22 259 22.5 33.8 0.00 0.00 0.00 11 1000.8
20260505083020 21 279 22.5 33.8 0.00 0.00 0.00 12 1000.6
20260505081516 21 236 20.9 29.0 0.00 0.00 0.00 14 1000.7
20260505080014 20 246 19.3 24.1 0.00 0.00 0.00 15 1000.9
20260505074510 20 229 16.1 22.5 0.00 0.00 0.00 15 1001.2
20260505073007 20 238 12.9 19.3 0.00 0.00 0.00 16 1001.4
20260505071502 20 209 11.3 17.7 0.00 0.00 0.00 16 1001.5
20260505070104 20 225 11.3 17.7 0.00 0.00 0.00 15 1001.6
20260505064607 21 244 12.9 20.9 0.00 0.00 0.00 15 1001.7
20260505063055 21 233 14.5 20.9 0.00 0.00 0.00 15 1001.7
20260505061554 21 209 12.9 17.7 0.00 0.00 0.00 15 1001.8
20260505060051 21 219 12.9 19.3 0.00 0.00 0.00 14 1002.1
20260505054616 22 217 14.5 22.5 0.00 0.00 0.00 13 1002.0
20260505053051 21 217 14.5 20.9 0.00 0.00 0.00 14 1002.1
20260505051548 21 200 12.9 17.7 0.00 0.00 0.00 14 1002.0
20260505041546 21 241 9.7 16.1 0.00 0.00 0.00 13 1002.3
20260505040028 21 213 12.9 16.1 0.00 0.00 0.00 13 1002.3
20260505034524 22 231 16.1 24.1 0.00 0.00 0.00 12 1002.4
20260505033023 22 240 16.1 22.5 0.00 0.00 0.00 12 1002.2
20260505031527 22 232 17.7 22.5 0.00 0.00 0.00 12 1002.3
20260505030012 23 252 16.1 20.9 0.00 0.00 0.00 11 1002.1
20260505024507 23 238 14.5 22.5 0.00 0.00 0.00 11 1001.9
20260505023002 24 237 19.3 29.0 0.00 0.00 0.00 10 1001.6
20260505021600 25 226 20.9 33.8 0.00 0.00 0.00 9 1001.7
20260505014548 25 238 20.9 29.0 0.00 0.00 0.00 9 1001.8
20260505013046 25 226 19.3 33.8 0.00 0.00 0.00 9 1001.7
20260505011540 26 193 24.1 32.2 0.00 0.00 0.00 9 1001.5
20260505010054 27 232 27.4 40.2 0.00 0.00 0.00 8 1001.7